AUA22FA EDDH-LOWW

Flight info

Callsign AUA22FA
Flight time 1h 13m
Altitude 39000
Route RAMAR6G RAMAR Z998 RATMO DCT HDO DCT EVIKU DCT BITSI DCT MIKOV MIKOV8W
Aircraft A320/M-SDE3FGHIRWY/LB1

Departure

Time 2026-04-26 07:44
Airport Hamburg Helmut Schmidt Airport (EDDH)

Arrival

Time 2026-04-26 08:57
Airport Vienna International Airport (LOWW)
Time Latitude Longitude Altitude Speed Heading
2026-04-26 07:13 53.63331 10.00364 49 ft 0 kts 86°
2026-04-26 07:35 53.63331 10.00348 48 ft 4 kts 86°
2026-04-26 07:35 53.63329 10.00304 46 ft 3 kts 86°
2026-04-26 07:35 53.63329 10.00267 45 ft 4 kts 106°
2026-04-26 07:36 53.63342 10.00235 45 ft 4 kts 161°
2026-04-26 07:36 53.63352 10.00230 48 ft 0 kts 176°
2026-04-26 07:39 53.63329 10.00233 47 ft 8 kts 176°
2026-04-26 07:39 53.63270 10.00240 48 ft 8 kts 175°
2026-04-26 07:39 53.63217 10.00247 48 ft 7 kts 175°
2026-04-26 07:39 53.63171 10.00253 48 ft 6 kts 175°
2026-04-26 07:40 53.63131 10.00258 48 ft 5 kts 176°
2026-04-26 07:40 53.63080 10.00262 48 ft 12 kts 184°
2026-04-26 07:40 53.62995 10.00183 46 ft 14 kts 213°
2026-04-26 07:40 53.62911 10.00094 48 ft 14 kts 212°
2026-04-26 07:41 53.62855 9.99994 48 ft 8 kts 242°
2026-04-26 07:41 53.62844 9.99959 45 ft 0 kts 243°
2026-04-26 07:42 53.62844 9.99958 46 ft 0 kts 243°
2026-04-26 07:43 53.62833 9.99920 47 ft 10 kts 243°
2026-04-26 07:43 53.62843 9.99773 45 ft 18 kts 333°
2026-04-26 07:43 53.63102 9.99542 45 ft 78 kts 333°
2026-04-26 07:43 53.63789 9.98946 49 ft 140 kts 333°
2026-04-26 07:44 53.64763 9.98110 410 ft 158 kts 333°
2026-04-26 07:44 53.65414 9.97560 1030 ft 152 kts 334°
2026-04-26 07:44 53.66351 9.96751 1750 ft 159 kts 335°
2026-04-26 07:44 53.67408 9.95849 2199 ft 181 kts 335°
2026-04-26 07:45 53.68611 9.94890 2577 ft 202 kts 345°
2026-04-26 07:45 53.70038 9.94671 3137 ft 210 kts
2026-04-26 07:45 53.71504 9.94683 4017 ft 210 kts
2026-04-26 07:45 53.72942 9.95091 4886 ft 213 kts 24°
2026-04-26 07:46 53.74108 9.96734 5511 ft 234 kts 55°
2026-04-26 07:46 53.74895 9.99310 6020 ft 257 kts 61°
2026-04-26 07:46 53.75685 10.02085 6870 ft 265 kts 61°
2026-04-26 07:46 53.76492 10.04928 7754 ft 271 kts 60°
2026-04-26 07:47 53.77316 10.07824 8647 ft 276 kts 59°
2026-04-26 07:47 53.78160 10.10780 9523 ft 282 kts 59°
2026-04-26 07:47 53.79023 10.13797 10378 ft 288 kts 59°
2026-04-26 07:47 53.79934 10.16955 10785 ft 310 kts 59°
2026-04-26 07:48 53.80912 10.20344 11269 ft 326 kts 59°
2026-04-26 07:48 53.81913 10.23835 12057 ft 332 kts 59°
2026-04-26 07:48 53.82924 10.27381 12885 ft 337 kts 59°
2026-04-26 07:48 53.83858 10.31056 13682 ft 346 kts 67°
2026-04-26 07:49 53.84323 10.35112 14412 ft 358 kts 81°
2026-04-26 07:49 53.84207 10.39332 15076 ft 369 kts 96°
2026-04-26 07:49 53.83642 10.43614 15752 ft 375 kts 99°
2026-04-26 07:50 53.82451 10.52313 17102 ft 384 kts 98°
2026-04-26 07:50 53.81844 10.56742 17748 ft 389 kts 98°
2026-04-26 07:50 53.81228 10.61225 18404 ft 393 kts 98°
2026-04-26 07:50 53.80598 10.65757 18998 ft 398 kts 100°
2026-04-26 07:51 53.79676 10.70227 19558 ft 407 kts 111°
2026-04-26 07:51 53.78295 10.74462 20129 ft 414 kts 120°
2026-04-26 07:51 53.76759 10.78600 20701 ft 417 kts 120°
2026-04-26 07:51 53.75207 10.82770 21253 ft 421 kts 120°
2026-04-26 07:52 53.73665 10.86913 21823 ft 424 kts 120°
2026-04-26 07:52 53.71965 10.91007 22365 ft 429 kts 128°
2026-04-26 07:52 53.69846 10.94668 22901 ft 433 kts 140°
2026-04-26 07:52 53.67436 10.97623 23409 ft 436 kts 149°
2026-04-26 07:53 53.64819 11.00279 23868 ft 442 kts 150°
2026-04-26 07:53 53.62172 11.02968 24278 ft 446 kts 150°
2026-04-26 07:53 53.59489 11.05698 24717 ft 449 kts 150°
2026-04-26 07:53 53.56818 11.08420 25176 ft 451 kts 150°
2026-04-26 07:54 53.54129 11.11161 25622 ft 453 kts 150°
2026-04-26 07:54 53.51423 11.13921 26070 ft 455 kts 150°
2026-04-26 07:54 53.48734 11.16659 26518 ft 457 kts 150°
2026-04-26 07:54 53.45989 11.19444 26953 ft 458 kts 150°
2026-04-26 07:55 53.43268 11.22191 27429 ft 459 kts 151°
2026-04-26 07:55 53.40520 11.24954 27878 ft 460 kts 151°
2026-04-26 07:55 53.37785 11.27698 28311 ft 462 kts 151°
2026-04-26 07:55 53.35001 11.30487 28733 ft 464 kts 151°
2026-04-26 07:56 53.32210 11.33279 29153 ft 466 kts 151°
2026-04-26 07:56 53.29432 11.36064 29557 ft 469 kts 151°
2026-04-26 07:56 53.26683 11.39068 29839 ft 476 kts 144°
2026-04-26 07:56 53.24182 11.42664 30195 ft 480 kts 138°
2026-04-26 07:57 53.21735 11.46454 30529 ft 482 kts 138°
2026-04-26 07:57 53.19240 11.50297 30860 ft 484 kts 139°
2026-04-26 07:57 53.16764 11.54088 31197 ft 484 kts 139°
2026-04-26 07:57 53.14295 11.57852 31547 ft 485 kts 139°
2026-04-26 07:58 53.11821 11.61621 31864 ft 486 kts 139°
2026-04-26 07:58 53.09321 11.65432 32243 ft 485 kts 139°
2026-04-26 07:58 53.06818 11.69243 32683 ft 484 kts 139°
2026-04-26 07:58 53.04365 11.72971 33108 ft 482 kts 139°
2026-04-26 07:59 53.01884 11.76734 33535 ft 482 kts 139°
2026-04-26 07:59 52.99414 11.80606 33832 ft 484 kts 134°
2026-04-26 07:59 52.97271 11.84890 34176 ft 485 kts 127°
2026-04-26 07:59 52.95237 11.89382 34528 ft 484 kts 127°
2026-04-26 08:00 52.93230 11.93787 34872 ft 484 kts 127°
2026-04-26 08:00 52.91180 11.98263 35210 ft 483 kts 127°
2026-04-26 08:00 52.89166 12.02645 35544 ft 482 kts 127°
2026-04-26 08:00 52.87146 12.07032 35857 ft 481 kts 127°
2026-04-26 08:01 52.85112 12.11444 36188 ft 479 kts 127°
2026-04-26 08:01 52.83102 12.15807 36504 ft 478 kts 127°
2026-04-26 08:01 52.81077 12.20201 36802 ft 478 kts 127°
2026-04-26 08:01 52.79058 12.24578 37025 ft 479 kts 127°
2026-04-26 08:02 52.77037 12.28953 37298 ft 479 kts 127°
2026-04-26 08:02 52.75019 12.33305 37581 ft 478 kts 127°
2026-04-26 08:02 52.72997 12.37665 37866 ft 477 kts 127°
2026-04-26 08:02 52.70855 12.41818 38138 ft 476 kts 135°
2026-04-26 08:03 52.68376 12.45423 38405 ft 475 kts 144°
2026-04-26 08:03 52.65703 12.48504 38656 ft 474 kts 146°
2026-04-26 08:03 52.62990 12.51578 38902 ft 473 kts 146°
2026-04-26 08:03 52.60276 12.54662 39105 ft 473 kts 146°
2026-04-26 08:04 52.57572 12.57742 39222 ft 473 kts 146°
2026-04-26 08:04 52.54871 12.60820 39286 ft 474 kts 146°
2026-04-26 08:04 52.49446 12.66991 39285 ft 474 kts 146°
2026-04-26 08:05 52.44007 12.73145 39291 ft 474 kts 146°
2026-04-26 08:05 52.38567 12.79266 39290 ft 474 kts 146°
2026-04-26 08:06 52.33114 12.85379 39286 ft 474 kts 146°
2026-04-26 08:06 52.27699 12.91441 39283 ft 475 kts 146°
2026-04-26 08:07 52.22245 12.97532 39297 ft 475 kts 146°
2026-04-26 08:07 52.16791 13.03601 39295 ft 475 kts 147°
2026-04-26 08:08 52.11315 13.09676 39297 ft 475 kts 147°
2026-04-26 08:08 52.05850 13.15734 39297 ft 475 kts 147°
2026-04-26 08:09 52.00377 13.21781 39289 ft 475 kts 147°
2026-04-26 08:09 51.94907 13.27789 39307 ft 474 kts 147°
2026-04-26 08:10 51.89476 13.33746 39324 ft 475 kts 147°
2026-04-26 08:10 51.84002 13.39730 39317 ft 475 kts 147°
2026-04-26 08:11 51.78490 13.45732 39310 ft 475 kts 147°
2026-04-26 08:11 51.73036 13.51653 39285 ft 475 kts 147°
2026-04-26 08:12 51.67567 13.57588 39307 ft 474 kts 147°
2026-04-26 08:12 51.62103 13.63505 39329 ft 473 kts 147°
2026-04-26 08:13 51.56633 13.69395 39307 ft 473 kts 147°
2026-04-26 08:13 51.51153 13.75266 39301 ft 474 kts 147°
2026-04-26 08:14 51.45665 13.81138 39278 ft 474 kts 148°
2026-04-26 08:14 51.40181 13.86994 39296 ft 473 kts 148°
2026-04-26 08:15 51.34711 13.92818 39303 ft 472 kts 148°
2026-04-26 08:15 51.29266 13.98606 39312 ft 472 kts 148°
2026-04-26 08:16 51.23797 14.04394 39309 ft 471 kts 148°
2026-04-26 08:16 51.18338 14.10151 39284 ft 471 kts 148°
2026-04-26 08:17 51.12873 14.15905 39293 ft 471 kts 148°
2026-04-26 08:17 51.07408 14.21650 39297 ft 471 kts 148°
2026-04-26 08:18 51.01929 14.27386 39297 ft 470 kts 148°
2026-04-26 08:18 50.96460 14.33086 39294 ft 471 kts 148°
2026-04-26 08:19 50.90645 14.37596 39255 ft 466 kts 166°
2026-04-26 08:19 50.84371 14.40008 39270 ft 464 kts 170°
2026-04-26 08:20 50.78087 14.42339 39275 ft 464 kts 170°
2026-04-26 08:20 50.71880 14.44648 39276 ft 464 kts 170°
2026-04-26 08:21 50.65636 14.46964 39261 ft 463 kts 170°
2026-04-26 08:21 50.59373 14.49263 39284 ft 461 kts 170°
2026-04-26 08:22 50.53123 14.51553 39293 ft 460 kts 170°
2026-04-26 08:22 50.47031 14.54681 39294 ft 465 kts 155°
2026-04-26 08:23 50.41790 14.60650 39287 ft 469 kts 136°
2026-04-26 08:23 50.37144 14.67734 39293 ft 469 kts 137°
2026-04-26 08:24 50.32443 14.74829 39301 ft 469 kts 137°
2026-04-26 08:24 50.27748 14.81906 39301 ft 468 kts 137°
2026-04-26 08:25 50.23053 14.88953 39291 ft 469 kts 137°
2026-04-26 08:25 50.18346 14.96009 39276 ft 469 kts 137°
2026-04-26 08:26 50.13627 15.03067 39260 ft 473 kts 137°
2026-04-26 08:26 50.11232 15.06639 38867 ft 481 kts 137°
2026-04-26 08:26 50.08794 15.10273 37953 ft 488 kts 137°
2026-04-26 08:27 50.06335 15.13933 37180 ft 489 kts 137°
2026-04-26 08:27 50.03879 15.17581 36537 ft 487 kts 137°
2026-04-26 08:27 50.01428 15.21209 36002 ft 484 kts 136°
2026-04-26 08:27 49.98999 15.24798 35396 ft 482 kts 136°
2026-04-26 08:28 49.96573 15.28378 34841 ft 480 kts 136°
2026-04-26 08:28 49.94187 15.31896 34316 ft 477 kts 136°
2026-04-26 08:28 49.91790 15.35430 33734 ft 474 kts 136°
2026-04-26 08:28 49.89408 15.38939 33163 ft 471 kts 136°
2026-04-26 08:29 49.87038 15.42421 32604 ft 468 kts 136°
2026-04-26 08:29 49.84681 15.45875 32064 ft 465 kts 136°
2026-04-26 08:29 49.82341 15.49303 31551 ft 461 kts 136°
2026-04-26 08:29 49.80031 15.52686 31102 ft 456 kts 136°
2026-04-26 08:30 49.77729 15.56051 30606 ft 453 kts 136°
2026-04-26 08:30 49.75444 15.59383 30001 ft 452 kts 136°
2026-04-26 08:30 49.73163 15.62707 29416 ft 449 kts 136°
2026-04-26 08:30 49.70895 15.66009 28865 ft 446 kts 136°
2026-04-26 08:31 49.68640 15.69290 28318 ft 443 kts 136°
2026-04-26 08:31 49.66401 15.72542 27785 ft 440 kts 136°
2026-04-26 08:31 49.64183 15.75762 27262 ft 437 kts 136°
2026-04-26 08:31 49.61969 15.78973 26755 ft 434 kts 136°
2026-04-26 08:32 49.59772 15.82150 26248 ft 432 kts 136°
2026-04-26 08:32 49.57592 15.85295 25750 ft 429 kts 136°
2026-04-26 08:32 49.55420 15.88426 25263 ft 426 kts 136°
2026-04-26 08:32 49.53282 15.91503 24789 ft 424 kts 136°
2026-04-26 08:33 49.51136 15.94593 24330 ft 421 kts 135°
2026-04-26 08:33 49.49002 15.97663 23875 ft 419 kts 135°
2026-04-26 08:33 49.46879 16.00713 23353 ft 417 kts 135°
2026-04-26 08:33 49.44765 16.03742 22837 ft 414 kts 135°
2026-04-26 08:34 49.42661 16.06748 22366 ft 412 kts 136°
2026-04-26 08:34 49.40570 16.09736 21895 ft 409 kts 136°
2026-04-26 08:34 49.38495 16.12700 21436 ft 407 kts 135°
2026-04-26 08:34 49.36421 16.15660 20989 ft 405 kts 136°
2026-04-26 08:35 49.34361 16.18595 20545 ft 403 kts 136°
2026-04-26 08:35 49.32309 16.21510 20109 ft 401 kts 137°
2026-04-26 08:35 49.30871 16.23275 19821 ft 401 kts 145°
2026-04-26 08:35 49.28456 16.25396 19378 ft 398 kts 156°
2026-04-26 08:36 49.25959 16.27224 18937 ft 397 kts 155°
2026-04-26 08:36 49.23475 16.29058 18636 ft 396 kts 155°
2026-04-26 08:36 49.20995 16.30899 18380 ft 396 kts 155°
2026-04-26 08:36 49.18523 16.32740 18134 ft 395 kts 155°
2026-04-26 08:37 49.16067 16.34566 17888 ft 388 kts 155°
2026-04-26 08:37 49.13662 16.36331 17675 ft 380 kts 158°
2026-04-26 08:37 49.11167 16.37475 17351 ft 372 kts 171°
2026-04-26 08:37 49.08648 16.38312 16995 ft 369 kts 171°
2026-04-26 08:38 49.06139 16.39133 16673 ft 367 kts 172°
2026-04-26 08:38 49.03652 16.39941 16324 ft 364 kts 172°
2026-04-26 08:38 49.01180 16.40740 15966 ft 362 kts 172°
2026-04-26 08:38 48.98729 16.41532 15656 ft 359 kts 172°
2026-04-26 08:39 48.96296 16.42319 15341 ft 356 kts 172°
2026-04-26 08:39 48.93877 16.43100 15026 ft 354 kts 172°
2026-04-26 08:39 48.91502 16.43867 14749 ft 352 kts 172°
2026-04-26 08:39 48.89097 16.44642 14391 ft 352 kts 172°
2026-04-26 08:40 48.86708 16.45413 14085 ft 351 kts 172°
2026-04-26 08:40 48.84322 16.46182 13742 ft 349 kts 172°
2026-04-26 08:40 48.81954 16.46944 13394 ft 347 kts 172°
2026-04-26 08:40 48.79602 16.47699 13061 ft 344 kts 172°
2026-04-26 08:41 48.77265 16.48446 12708 ft 342 kts 172°
2026-04-26 08:41 48.74950 16.49186 12392 ft 339 kts 172°
2026-04-26 08:41 48.72647 16.49925 12065 ft 337 kts 172°
2026-04-26 08:41 48.70353 16.50662 11745 ft 335 kts 172°
2026-04-26 08:42 48.68085 16.51389 11414 ft 333 kts 172°
2026-04-26 08:42 48.65825 16.52109 11084 ft 331 kts 173°
2026-04-26 08:42 48.63572 16.52825 10768 ft 329 kts 173°
2026-04-26 08:42 48.61340 16.53537 10435 ft 327 kts 173°
2026-04-26 08:43 48.59126 16.54246 10096 ft 325 kts 173°
2026-04-26 08:43 48.56919 16.54953 9718 ft 323 kts 172°
2026-04-26 08:43 48.54726 16.55656 9343 ft 321 kts 172°
2026-04-26 08:43 48.52555 16.56352 9008 ft 317 kts 173°
2026-04-26 08:44 48.50430 16.57028 8670 ft 314 kts 173°
2026-04-26 08:44 48.48296 16.57702 8326 ft 312 kts 173°
2026-04-26 08:44 48.46172 16.58372 8072 ft 311 kts 173°
2026-04-26 08:44 48.44034 16.59049 7820 ft 309 kts 173°
2026-04-26 08:45 48.41964 16.59706 7558 ft 307 kts 172°
2026-04-26 08:45 48.39874 16.60368 7136 ft 306 kts 172°
2026-04-26 08:45 48.37798 16.61028 6761 ft 304 kts 172°
2026-04-26 08:45 48.35738 16.61682 6380 ft 302 kts 171°
2026-04-26 08:46 48.33682 16.62329 5961 ft 300 kts 170°
2026-04-26 08:46 48.31643 16.62971 5562 ft 298 kts 169°
2026-04-26 08:46 48.29612 16.63609 5152 ft 297 kts 170°
2026-04-26 08:46 48.27598 16.64243 4765 ft 294 kts 169°
2026-04-26 08:47 48.25613 16.64934 4390 ft 292 kts 166°
2026-04-26 08:47 48.23659 16.65729 4135 ft 290 kts 164°
2026-04-26 08:47 48.21718 16.66561 3888 ft 290 kts 164°
2026-04-26 08:47 48.19787 16.67399 3627 ft 288 kts 163°
2026-04-26 08:48 48.17897 16.68216 3365 ft 285 kts 164°
2026-04-26 08:48 48.15981 16.69034 3115 ft 282 kts 164°
2026-04-26 08:48 48.14097 16.69831 3031 ft 281 kts 164°
2026-04-26 08:48 48.12237 16.70614 3039 ft 281 kts 165°
2026-04-26 08:49 48.10352 16.71405 3032 ft 281 kts 165°
2026-04-26 08:49 48.08471 16.72189 3035 ft 281 kts 165°
2026-04-26 08:49 48.06616 16.72960 3024 ft 270 kts 165°
2026-04-26 08:49 48.04860 16.73688 3028 ft 255 kts 165°
2026-04-26 08:50 48.03167 16.74387 3040 ft 251 kts 165°
2026-04-26 08:50 48.01487 16.75084 3027 ft 250 kts 165°
2026-04-26 08:50 47.99810 16.75782 3031 ft 250 kts 165°
2026-04-26 08:50 47.98134 16.76480 3021 ft 250 kts 165°
2026-04-26 08:51 47.94900 16.76085 2625 ft 229 kts 225°
2026-04-26 08:51 47.93984 16.74359 2634 ft 203 kts 251°
2026-04-26 08:51 47.93416 16.72509 2636 ft 189 kts 255°
2026-04-26 08:52 47.92904 16.70720 2636 ft 184 kts 260°
2026-04-26 08:52 47.92773 16.68914 2637 ft 171 kts 285°
2026-04-26 08:52 47.93096 16.67286 2628 ft 160 kts 304°
2026-04-26 08:52 47.93761 16.65993 2631 ft 156 kts 321°
2026-04-26 08:53 47.94665 16.65141 2629 ft 156 kts 338°
2026-04-26 08:53 47.95719 16.64666 2639 ft 161 kts 343°
2026-04-26 08:53 47.96787 16.64220 2630 ft 158 kts 344°
2026-04-26 08:53 47.97845 16.63777 2639 ft 160 kts 344°
2026-04-26 08:54 47.98920 16.63325 2584 ft 162 kts 344°
2026-04-26 08:54 47.99988 16.62877 2423 ft 159 kts 344°
2026-04-26 08:54 48.01032 16.62437 2232 ft 149 kts 343°
2026-04-26 08:54 48.01984 16.62036 2043 ft 136 kts 343°
2026-04-26 08:55 48.02867 16.61664 1867 ft 129 kts 343°
2026-04-26 08:55 48.03699 16.61314 1715 ft 121 kts 343°
2026-04-26 08:55 48.04513 16.60970 1520 ft 124 kts 343°
2026-04-26 08:55 48.05328 16.60606 1364 ft 120 kts 341°
2026-04-26 08:56 48.06128 16.60258 1193 ft 120 kts 344°
2026-04-26 08:56 48.06931 16.59931 1085 ft 123 kts 345°
2026-04-26 08:56 48.07740 16.59596 923 ft 118 kts 343°
2026-04-26 08:56 48.08540 16.59262 748 ft 117 kts 345°
2026-04-26 08:57 48.09316 16.58934 631 ft 116 kts 345°
2026-04-26 08:57 48.09999 16.58652 622 ft 81 kts 345°
2026-04-26 08:57 48.10406 16.58482 615 ft 48 kts 344°
2026-04-26 08:57 48.10685 16.58367 617 ft 36 kts 344°
2026-04-26 08:58 48.10897 16.58276 624 ft 28 kts 344°
2026-04-26 08:58 48.11065 16.58203 617 ft 23 kts 344°
2026-04-26 08:58 48.11214 16.58141 622 ft 22 kts 344°
2026-04-26 08:58 48.11363 16.58079 619 ft 22 kts 345°
2026-04-26 08:59 48.11509 16.58016 618 ft 22 kts 343°
2026-04-26 08:59 48.11651 16.57956 619 ft 20 kts 345°
2026-04-26 08:59 48.11784 16.57897 614 ft 19 kts 337°
2026-04-26 08:59 48.11859 16.57745 610 ft 20 kts 282°
2026-04-26 09:00 48.11832 16.57534 626 ft 22 kts 253°
2026-04-26 09:00 48.11823 16.57313 622 ft 21 kts 297°
2026-04-26 09:00 48.11864 16.57123 618 ft 19 kts 288°
2026-04-26 09:00 48.11923 16.56934 621 ft 21 kts 296°
2026-04-26 09:01 48.11972 16.56776 613 ft 11 kts 280°
2026-04-26 09:01 48.11931 16.56725 613 ft 7 kts 205°
2026-04-26 09:01 48.11912 16.56711 626 ft 0 kts 206°